| time (UTC) | temp C | wind direction | speed KPH | gust KPH | rain 1hr cm | rain 24hr cm | rain mn cm | humidity % | barometer mb |
| 20260506102924 | 10 | 90 | 4.8 | 6.4 | 0.00 | 0.00 | 0.00 | 92 | 1019.6 |
| 20260506101919 | 10 | 86 | 4.8 | 6.4 | 0.00 | 0.00 | 0.00 | 92 | 1019.6 |
| 20260506100921 | 10 | 94 | 4.8 | 6.4 | 0.00 | 0.00 | 0.00 | 92 | 1019.6 |
| 20260506095920 | 10 | 88 | 4.8 | 6.4 | 0.00 | 0.00 | 0.00 | 92 | 1019.6 |
| 20260506094940 | 10 | 93 | 4.8 | 6.4 | 0.00 | 0.00 | 0.00 | 92 | 1019.6 |
| 20260506093916 | 10 | 82 | 4.8 | 4.8 | 0.00 | 0.00 | 0.00 | 93 | 1019.5 |
| 20260506092918 | 10 | 83 | 4.8 | 4.8 | 0.00 | 0.00 | 0.00 | 93 | 1019.4 |
| 20260506091928 | 10 | 90 | 4.8 | 6.4 | 0.00 | 0.00 | 0.00 | 93 | 1019.4 |
| 20260506090912 | 10 | 99 | 4.8 | 6.4 | 0.00 | 0.00 | 0.00 | 93 | 1019.4 |
| 20260506090029 | 10 | 89 | 6.4 | 6.4 | 0.00 | 0.00 | 0.00 | 93 | 1019.4 |
| 20260506084919 | 10 | 85 | 6.4 | 6.4 | 0.00 | 0.00 | 0.00 | 94 | 1019.4 |
| 20260506083913 | 10 | 93 | 4.8 | 6.4 | 0.00 | 0.00 | 0.00 | 94 | 1019.4 |
| 20260506082914 | 10 | 91 | 6.4 | 6.4 | 0.00 | 0.00 | 0.00 | 94 | 1019.4 |
| 20260506081929 | 10 | 95 | 6.4 | 6.4 | 0.00 | 0.00 | 0.00 | 93 | 1019.4 |
| 20260506080922 | 10 | 98 | 6.4 | 6.4 | 0.00 | 0.00 | 0.00 | 93 | 1019.4 |
| 20260506072925 | 10 | 93 | 6.4 | 6.4 | 0.00 | 0.00 | 0.00 | 93 | 1019.0 |
| 20260506071922 | 10 | 79 | 4.8 | 6.4 | 0.00 | 0.00 | 0.00 | 93 | 1018.9 |
| 20260506070915 | 10 | 91 | 4.8 | 6.4 | 0.00 | 0.00 | 0.00 | 93 | 1018.9 |
| 20260506061911 | 10 | 88 | 4.8 | 6.4 | 0.00 | 0.00 | 0.00 | 92 | 1018.6 |
| 20260506060905 | 10 | 86 | 4.8 | 6.4 | 0.00 | 0.00 | 0.00 | 92 | 1018.5 |
| 20260506050904 | 10 | 82 | 4.8 | 6.4 | 0.00 | 0.00 | 0.00 | 92 | 1018.0 |
| 20260506044915 | 10 | 94 | 4.8 | 6.4 | 0.00 | 0.00 | 0.00 | 92 | 1017.7 |
| 20260506043914 | 10 | 99 | 4.8 | 6.4 | 0.00 | 0.00 | 0.00 | 91 | 1017.6 |
| 20260506042859 | 11 | 78 | 4.8 | 6.4 | 0.00 | 0.00 | 0.00 | 91 | 1017.5 |
| 20260506041911 | 11 | 94 | 4.8 | 6.4 | 0.00 | 0.00 | 0.00 | 91 | 1017.4 |
| 20260506040907 | 11 | 83 | 4.8 | 6.4 | 0.00 | 0.00 | 0.00 | 91 | 1017.1 |
| 20260506035859 | 11 | 79 | 4.8 | 9.7 | 0.00 | 0.00 | 0.00 | 91 | 1016.9 |
| 20260506034859 | 11 | 81 | 4.8 | 6.4 | 0.00 | 0.00 | 0.00 | 91 | 1016.7 |
| 20260506033901 | 11 | 73 | 4.8 | 6.4 | 0.00 | 0.00 | 0.00 | 90 | 1016.4 |
| 20260506032855 | 11 | 98 | 4.8 | 8.0 | 0.00 | 0.00 | 0.00 | 90 | 1016.1 |
| 20260506031853 | 11 | 78 | 6.4 | 8.0 | 0.00 | 0.00 | 0.00 | 89 | 1015.9 |
| 20260506030901 | 11 | 92 | 6.4 | 8.0 | 0.00 | 0.00 | 0.00 | 88 | 1015.7 |
| 20260506025852 | 11 | 89 | 4.8 | 8.0 | 0.00 | 0.00 | 0.00 | 87 | 1015.5 |
| 20260506025010 | 12 | 86 | 6.4 | 9.7 | 0.00 | 0.00 | 0.00 | 86 | 1015.2 |
| 20260506023902 | 12 | 86 | 6.4 | 9.7 | 0.00 | 0.00 | 0.00 | 84 | 1015.0 |
| 20260506022901 | 12 | 99 | 6.4 | 8.0 | 0.00 | 0.00 | 0.00 | 83 | 1014.8 |
| 20260506021854 | 13 | 91 | 6.4 | 8.0 | 0.00 | 0.00 | 0.00 | 81 | 1014.6 |
| 20260506020907 | 13 | 83 | 6.4 | 9.7 | 0.00 | 0.00 | 0.00 | 79 | 1014.5 |
| 20260506015851 | 14 | 84 | 6.4 | 9.7 | 0.00 | 0.00 | 0.00 | 77 | 1014.2 |
| 20260506015007 | 15 | 63 | 6.4 | 9.7 | 0.00 | 0.00 | 0.00 | 75 | 1014.0 |
| 20260506013852 | 15 | 79 | 6.4 | 9.7 | 0.00 | 0.00 | 0.00 | 73 | 1013.9 |
| 20260506012850 | 16 | 97 | 8.0 | 11.3 | 0.00 | 0.00 | 0.00 | 70 | 1013.8 |
| 20260506011857 | 17 | 65 | 6.4 | 9.7 | 0.00 | 0.00 | 0.00 | 67 | 1013.7 |
| 20260506010903 | 17 | 88 | 6.4 | 11.3 | 0.00 | 0.00 | 0.00 | 64 | 1013.6 |
| 20260506005849 | 18 | 77 | 6.4 | 11.3 | 0.00 | 0.00 | 0.00 | 62 | 1013.5 |
| 20260506004852 | 18 | 87 | 3.2 | 8.0 | 0.00 | 0.00 | 0.00 | 60 | 1013.3 |
| 20260506003846 | 19 | 133 | 0.0 | 4.8 | 0.00 | 0.00 | 0.00 | 55 | 1013.2 |
| 20260506002846 | 20 | 94 | 0.0 | 4.8 | 0.00 | 0.00 | 0.00 | 55 | 1013.1 |
| 20260506001845 | 20 | 179 | 1.6 | 8.0 | 0.00 | 0.00 | 0.00 | 56 | 1013.2 |
| 20260506000844 | 20 | 309 | 1.6 | 6.4 | 0.00 | 0.00 | 0.00 | 53 | 1013.2 |
| 20260505235840 | 21 | 168 | 1.6 | 6.4 | 0.00 | 0.00 | 0.00 | 51 | 1013.1 |
| 20260505234842 | 20 | 333 | 1.6 | 4.8 | 0.00 | 0.00 | 0.00 | 52 | 1013.1 |
| 20260505233832 | 21 | 304 | 3.2 | 9.7 | 0.00 | 0.00 | 0.00 | 50 | 1013.2 |
| 20260505232830 | 21 | 0 | 3.2 | 8.0 | 0.00 | 0.00 | 0.00 | 51 | 1013.2 |
| 20260505231945 | 21 | 0 | 3.2 | 8.0 | 0.00 | 0.00 | 0.00 | 48 | 1013.2 |
| 20260505230831 | 22 | 348 | 3.2 | 9.7 | 0.00 | 0.00 | 0.00 | 46 | 1013.3 |
| 20260505225828 | 22 | 227 | 3.2 | 12.9 | 0.00 | 0.00 | 0.00 | 44 | 1013.3 |
| 20260505224940 | 23 | 346 | 4.8 | 11.3 | 0.00 | 0.00 | 0.00 | 43 | 1013.5 |
| 20260505223825 | 23 | 207 | 4.8 | 17.7 | 0.00 | 0.00 | 0.00 | 32 | 1013.2 |
| 20260505222825 | 23 | 247 | 3.2 | 8.0 | 0.00 | 0.03 | 0.00 | 32 | 1013.3 |
| 20260505221837 | 23 | 247 | 3.2 | 8.0 | 0.00 | 0.03 | 0.00 | 32 | 1013.3 |
| 20260505220825 | 22 | 200 | 3.2 | 6.4 | 0.00 | 0.03 | 0.00 | 31 | 1013.5 |
| 20260505215822 | 22 | 226 | 3.2 | 12.9 | 0.00 | 0.03 | 0.00 | 32 | 1013.5 |
| 20260505214826 | 22 | 351 | 3.2 | 11.3 | 0.00 | 0.03 | 0.00 | 33 | 1013.6 |
| 20260505213825 | 22 | 315 | 3.2 | 8.0 | 0.00 | 0.03 | 0.00 | 33 | 1013.8 |
| 20260505212823 | 22 | 233 | 3.2 | 14.5 | 0.00 | 0.03 | 0.00 | 34 | 1013.8 |
| 20260505211822 | 21 | 186 | 3.2 | 14.5 | 0.00 | 0.03 | 0.00 | 35 | 1013.9 |
| 20260505210825 | 21 | 332 | 3.2 | 16.1 | 0.00 | 0.03 | 0.00 | 35 | 1013.9 |
| 20260505205823 | 21 | 197 | 4.8 | 14.5 | 0.00 | 0.03 | 0.00 | 35 | 1014.0 |
| 20260505204820 | 21 | 224 | 4.8 | 14.5 | 0.00 | 0.03 | 0.00 | 36 | 1014.0 |
| 20260505203819 | 21 | 61 | 3.2 | 16.1 | 0.00 | 0.03 | 0.00 | 36 | 1014.1 |
| 20260505202817 | 21 | 65 | 3.2 | 12.9 | 0.00 | 0.03 | 0.00 | 35 | 1014.1 |
| 20260505201817 | 21 | 75 | 3.2 | 12.9 | 0.00 | 0.03 | 0.00 | 36 | 1014.1 |
| 20260505200927 | 21 | 245 | 3.2 | 8.0 | 0.00 | 0.03 | 0.00 | 36 | 1014.4 |
| 20260505195825 | 21 | 199 | 4.8 | 17.7 | 0.00 | 0.03 | 0.00 | 35 | 1014.5 |
| 20260505194816 | 21 | 86 | 3.2 | 14.5 | 0.00 | 0.03 | 0.00 | 36 | 1014.5 |
| 20260505193815 | 20 | 196 | 4.8 | 12.9 | 0.00 | 0.03 | 0.00 | 35 | 1014.5 |
| 20260505192818 | 20 | 25 | 3.2 | 9.7 | 0.00 | 0.03 | 0.00 | 40 | 1014.6 |
| 20260505191816 | 20 | 181 | 4.8 | 9.7 | 0.00 | 0.03 | 0.00 | 39 | 1014.6 |
| 20260505190814 | 20 | 18 | 3.2 | 14.5 | 0.00 | 0.03 | 0.00 | 41 | 1014.7 |
| 20260505185816 | 19 | 75 | 3.2 | 12.9 | 0.00 | 0.03 | 0.00 | 35 | 1014.7 |
| 20260505184923 | 20 | 278 | 4.8 | 12.9 | 0.00 | 0.03 | 0.00 | 37 | 1014.7 |
| 20260505183812 | 19 | 60 | 4.8 | 14.5 | 0.00 | 0.03 | 0.00 | 40 | 1014.8 |
| 20260505182924 | 18 | 43 | 6.4 | 11.3 | 0.00 | 0.03 | 0.00 | 43 | 1014.8 |
| 20260505181815 | 18 | 74 | 4.8 | 14.5 | 0.00 | 0.03 | 0.00 | 45 | 1014.9 |
| 20260505180931 | 17 | 49 | 6.4 | 14.5 | 0.00 | 0.03 | 0.00 | 47 | 1014.8 |
| 20260505175813 | 16 | 85 | 4.8 | 14.5 | 0.00 | 0.03 | 0.00 | 51 | 1014.9 |
| 20260505174816 | 16 | 106 | 6.4 | 12.9 | 0.00 | 0.03 | 0.00 | 54 | 1014.8 |
| 20260505173814 | 15 | 78 | 6.4 | 11.3 | 0.00 | 0.03 | 0.00 | 56 | 1014.6 |
| 20260505172929 | 13 | 162 | 4.8 | 12.9 | 0.00 | 0.03 | 0.00 | 74 | 1014.6 |
| 20260505171812 | 13 | 176 | 4.8 | 8.0 | 0.00 | 0.03 | 0.00 | 75 | 1014.6 |
| 20260505170811 | 12 | 102 | 4.8 | 6.4 | 0.00 | 0.03 | 0.00 | 81 | 1014.6 |
| 20260505165810 | 11 | 96 | 3.2 | 6.4 | 0.00 | 0.03 | 0.00 | 84 | 1014.6 |
| 20260505164809 | 11 | 166 | 3.2 | 6.4 | 0.00 | 0.03 | 0.00 | 85 | 1014.5 |
| 20260505163806 | 11 | 72 | 4.8 | 6.4 | 0.00 | 0.03 | 0.00 | 89 | 1014.6 |
| 20260505162805 | 10 | 104 | 3.2 | 6.4 | 0.00 | 0.03 | 0.00 | 89 | 1014.6 |
| 20260505161808 | 9 | 102 | 4.8 | 8.0 | 0.00 | 0.03 | 0.00 | 91 | 1014.6 |
| 20260505160806 | 8 | 171 | 3.2 | 4.8 | 0.00 | 0.03 | 0.00 | 95 | 1014.6 |
| 20260505152806 | 7 | 12 | 3.2 | 6.4 | 0.00 | 0.03 | 0.00 | 95 | 1014.7 |
| 20260505151801 | 7 | 105 | 3.2 | 6.4 | 0.00 | 0.03 | 0.00 | 95 | 1014.7 |
| 20260505150759 | 7 | 176 | 3.2 | 4.8 | 0.00 | 0.03 | 0.00 | 95 | 1014.6 |
| 20260505124754 | 7 | 87 | 3.2 | 6.4 | 0.00 | 0.03 | 0.00 | 96 | 1014.0 |
| 20260505123801 | 7 | 70 | 3.2 | 6.4 | 0.00 | 0.03 | 0.00 | 96 | 1013.9 |
| 20260505122810 | 7 | 107 | 3.2 | 6.4 | 0.00 | 0.03 | 0.00 | 96 | 1013.9 |
| 20260505121756 | 7 | 12 | 4.8 | 4.8 | 0.00 | 0.03 | 0.00 | 96 | 1013.8 |
| 20260505120751 | 7 | 93 | 4.8 | 6.4 | 0.00 | 0.03 | 0.00 | 96 | 1013.7 |
| 20260505114756 | 7 | 90 | 4.8 | 6.4 | 0.00 | 0.03 | 0.00 | 96 | 1013.7 |
| 20260505113900 | 7 | 90 | 3.2 | 6.4 | 0.00 | 0.03 | 0.00 | 96 | 1013.7 |
| 20260505112748 | 7 | 87 | 4.8 | 6.4 | 0.00 | 0.03 | 0.00 | 96 | 1013.8 |
| 20260505111759 | 7 | 91 | 4.8 | 6.4 | 0.00 | 0.03 | 0.00 | 96 | 1013.8 |
| 20260505110756 | 7 | 75 | 4.8 | 4.8 | 0.00 | 0.03 | 0.00 | 96 | 1013.8 |